FENGYUN 1C DEB

Satellite information

Favourite Embed

Satellite Type and Status

DEBRISIN ORBIT

Key statistics

Satellite FENGYUN 1C DEB at a glance.

Uptime

9666

Days in orbit

Revolutions

≈ 14.1

Per day

Orbit

SSO

Sun Synchronous Orbit

Inclination

98.8

Latest

Satellite identification and parameters

Extended collection of information and parameters for FENGYUN 1C DEB.

Object identification

Identified? True

Debris? True

Object name: FENGYUN 1C DEB

International designator: 1999-025JT

Object number (NORAD): 29945

Object ID (CCSDS): 29945

Country: PEOPLES REPUBLIC OF CHINA (PRC)

Current information (Y/N): Y

RCS size: MEDIUM

Orbital parameters

Period: 102.451 minutes

Inclination: 98.798 deg

SMA: 7252.792 km

Apoapsis: 897.702 km

Periapsis: 851.612 km

RAAN: 323.0805 deg

Eccentricy: 0.00317738

Argument of periapsis: 136.0695 deg

Mean anomaly: 287.7877 deg

Mean motion: 14.05545482 rev/day

Mean motion (dot): 0.00000088 rev/day2

B* drag term: 0.000079918552 1/REarth

Two-line elements (TLE)

Creation date: Oct. 25, 2025, 3:11 a.m.

Reference frame: TEME

Reference center: EARTH

Epoch: Oct. 24, 2025, 11:43 p.m. UTC

TLE line 0: 0 FENGYUN 1C DEB

TLE line 1: 1 29945U 99025JT 25297.98841273 .00000088 00000-0 79919-4 0 9996

TLE line 2: 2 29945 98.7980 323.0805 0031774 136.0695 287.7877 14.05545482962938

Live tracking on map

Real-time ground track for satellite FENGYUN 1C DEB.

In-orbit conjunctions

A list of the most updated potential collisions computed for object FENGYUN 1C DEB.

Target Orbit TCA Probability of collision Miss distance Type
CZ-6A DEB LEO 2025-05-02 06:11:46 0.0003054782 50.0 (m) DEBRIS
METEOR 2-8 DEB LEO 2024-09-02 18:31:57 0.0002953848 149.0 (m) DEBRIS

Associated space launch

Chinese polar orbiting meteorological satellite

FENGYUN 1C DEB was lifted into orbit during the mission ‘Long March 4B | Feng Yun 1C’, on board a Long March 4B space rocket.

The launch took place on May 10, 1999, 1:33 a.m. from Launch Complex 7.

For more information about the launch, click the button.

Launch to space Long March 4B | Feng Yun 1C
Long March 4B | Feng Yun 1C

Agency: N/A

Status: Launch Successful

Launch date: May 10, 1999, 1:33 a.m. UTC

Rocket: Long March 4B

Launch pad: Launch Complex 7

Location: Taiyuan Satellite Launch Center, People's Republic of China

...

Latest news about this satellite

There are no fresh news available about this satellite. Check back as we update our databases every day.


Newsletter sign-up

Weekly statistics, charts and insights to help you stay on top of the space industry.